TimeEST,TemperatureF,Dew PointF,Humidity,Sea Level PressureIn,VisibilityMPH,Wind Direction,Wind SpeedMPH,Gust SpeedMPH,PrecipitationIn,Events,Conditions,WindDirDegrees,DateUTC
12:15 AM,46.4,44.6,93,30.23,7.0,NE,10.4,23.0,N/A,Rain,Rain,40,2012-12-05 05:15:00
12:35 AM,44.6,42.8,93,30.24,10.0,NNE,5.8,-,N/A,Rain,Rain,20,2012-12-05 05:35:00
12:55 AM,44.6,42.8,93,30.23,7.0,NE,8.1,16.1,N/A,Rain,Rain,50,2012-12-05 05:55:00
1:15 AM,44.6,41.0,87,30.24,10.0,ENE,4.6,-,N/A,Rain,Light Rain,70,2012-12-05 06:15:00
1:35 AM,46.4,41.0,81,30.25,10.0,East,3.5,-,N/A,,Light Drizzle,80,2012-12-05 06:35:00
1:55 AM,46.4,41.0,81,30.25,10.0,NE,3.5,-,N/A,,Overcast,50,2012-12-05 06:55:00
2:15 AM,44.6,41.0,87,30.25,10.0,Calm,Calm,-,N/A,,Light Drizzle,0,2012-12-05 07:15:00
2:55 AM,46.4,41.0,81,30.27,10.0,North,4.6,-,N/A,,Drizzle,10,2012-12-05 07:55:00
3:15 AM,44.6,41.0,87,30.28,10.0,Calm,Calm,-,N/A,,Drizzle,0,2012-12-05 08:15:00
3:35 AM,44.6,42.8,93,30.28,10.0,Calm,Calm,-,N/A,Rain,Light Rain,0,2012-12-05 08:35:00
3:55 AM,44.6,42.8,93,30.28,10.0,Calm,Calm,-,N/A,,Overcast,0,2012-12-05 08:55:00
4:15 AM,44.6,41.0,87,30.28,10.0,Calm,Calm,-,N/A,,Overcast,0,2012-12-05 09:15:00
4:35 AM,44.6,41.0,87,30.28,10.0,Calm,Calm,-,N/A,,Overcast,0,2012-12-05 09:35:00
4:55 AM,44.6,41.0,87,30.27,10.0,NNE,4.6,-,N/A,,Overcast,30,2012-12-05 09:55:00
5:15 AM,44.6,41.0,87,30.28,10.0,North,3.5,-,N/A,,Overcast,10,2012-12-05 10:15:00
5:35 AM,44.6,41.0,87,30.29,10.0,North,3.5,-,N/A,,Overcast,360,2012-12-05 10:35:00
5:55 AM,44.6,41.0,87,30.30,10.0,North,3.5,-,N/A,,Overcast,10,2012-12-05 10:55:00
6:15 AM,44.6,41.0,87,30.31,10.0,Calm,Calm,-,N/A,,Overcast,0,2012-12-05 11:15:00
6:35 AM,44.6,41.0,87,30.31,10.0,North,3.5,-,N/A,,Overcast,10,2012-12-05 11:35:00
6:55 AM,44.6,41.0,87,30.32,10.0,Calm,Calm,-,N/A,,Overcast,0,2012-12-05 11:55:00
7:15 AM,42.8,41.0,93,30.32,10.0,North,3.5,-,N/A,,Overcast,10,2012-12-05 12:15:00
7:35 AM,42.8,41.0,93,30.33,10.0,North,3.5,-,N/A,,Mostly Cloudy,10,2012-12-05 12:35:00
7:55 AM,42.8,41.0,93,30.32,10.0,Calm,Calm,-,N/A,,Clear,0,2012-12-05 12:55:00
9:35 AM,44.6,41.0,87,30.33,10.0,Calm,Calm,-,N/A,,Clear,0,2012-12-05 14:35:00
9:55 AM,46.4,41.0,81,30.34,10.0,Calm,Calm,-,N/A,,Clear,0,2012-12-05 14:55:00
10:15 AM,50.0,41.0,71,30.34,10.0,NE,4.6,-,N/A,,Clear,40,2012-12-05 15:15:00
10:35 AM,50.0,41.0,71,30.34,10.0,ENE,4.6,-,N/A,,Clear,60,2012-12-05 15:35:00
10:55 AM,50.0,39.2,66,30.34,10.0,NE,6.9,-,N/A,,Clear,50,2012-12-05 15:55:00
11:15 AM,51.8,37.4,58,30.34,10.0,ENE,6.9,-,N/A,,Clear,60,2012-12-05 16:15:00
11:35 AM,51.8,37.4,58,30.33,10.0,NE,8.1,-,N/A,,Clear,40,2012-12-05 16:35:00
11:55 AM,53.6,37.4,54,30.33,10.0,NE,8.1,-,N/A,,Clear,50,2012-12-05 16:55:00
12:15 PM,53.6,37.4,54,30.32,10.0,ENE,6.9,-,N/A,,Clear,60,2012-12-05 17:15:00
12:35 PM,53.6,35.6,51,30.31,10.0,NNE,9.2,-,N/A,,Clear,30,2012-12-05 17:35:00
12:55 PM,53.6,35.6,51,30.30,10.0,NE,6.9,-,N/A,,Clear,50,2012-12-05 17:55:00
1:15 PM,53.6,35.6,51,30.29,10.0,ENE,5.8,-,N/A,,Clear,60,2012-12-05 18:15:00
1:35 PM,55.4,35.6,47,30.28,10.0,ENE,5.8,-,N/A,,Clear,60,2012-12-05 18:35:00
1:55 PM,55.4,33.8,44,30.28,10.0,NE,8.1,-,N/A,,Clear,40,2012-12-05 18:55:00
2:15 PM,55.4,33.8,44,30.27,10.0,NE,6.9,-,N/A,,Clear,40,2012-12-05 19:15:00
2:35 PM,55.4,33.8,44,30.26,10.0,NE,6.9,-,N/A,,Clear,40,2012-12-05 19:35:00
2:55 PM,55.4,33.8,44,30.26,10.0,NE,5.8,-,N/A,,Clear,40,2012-12-05 19:55:00
3:15 PM,55.4,33.8,44,30.26,10.0,NE,6.9,-,N/A,,Clear,50,2012-12-05 20:15:00
3:35 PM,55.4,33.8,44,30.26,10.0,NNE,6.9,-,N/A,,Clear,30,2012-12-05 20:35:00
3:55 PM,55.4,32.0,41,30.26,10.0,NNE,8.1,-,N/A,,Clear,30,2012-12-05 20:55:00
4:15 PM,55.4,32.0,41,30.26,10.0,NNE,8.1,-,N/A,,Clear,20,2012-12-05 21:15:00
4:35 PM,53.6,32.0,44,30.26,10.0,NNE,5.8,-,N/A,,Clear,20,2012-12-05 21:35:00
4:55 PM,53.6,32.0,44,30.26,10.0,NNE,8.1,-,N/A,,Clear,20,2012-12-05 21:55:00
5:15 PM,51.8,32.0,47,30.26,10.0,North,8.1,-,N/A,,Clear,10,2012-12-05 22:15:00
5:35 PM,51.8,32.0,47,30.26,10.0,NNE,5.8,-,N/A,,Clear,20,2012-12-05 22:35:00
5:55 PM,50.0,32.0,50,30.26,10.0,NNE,5.8,-,N/A,,Clear,20,2012-12-05 22:55:00
6:15 PM,50.0,32.0,50,30.26,10.0,NNE,5.8,-,N/A,,Clear,30,2012-12-05 23:15:00
6:35 PM,48.2,32.0,54,30.26,10.0,NNE,5.8,-,N/A,,Clear,20,2012-12-05 23:35:00
6:55 PM,46.4,32.0,57,30.26,10.0,Calm,Calm,-,N/A,,Clear,0,2012-12-05 23:55:00
7:15 PM,46.4,32.0,57,30.26,10.0,Calm,Calm,-,N/A,,Clear,0,2012-12-06 00:15:00
7:35 PM,46.4,32.0,57,30.26,10.0,NNE,4.6,-,N/A,,Clear,30,2012-12-06 00:35:00
7:55 PM,44.6,32.0,61,30.26,10.0,Calm,Calm,-,N/A,,Clear,0,2012-12-06 00:55:00
8:15 PM,44.6,32.0,61,30.25,10.0,NNE,3.5,-,N/A,,Clear,30,2012-12-06 01:15:00
8:35 PM,44.6,32.0,61,30.25,10.0,NNE,4.6,-,N/A,,Clear,30,2012-12-06 01:35:00
8:55 PM,44.6,33.8,66,30.25,10.0,NNE,4.6,-,N/A,,Clear,30,2012-12-06 01:55:00
9:15 PM,44.6,33.8,66,30.25,10.0,NNE,5.8,-,N/A,,Clear,30,2012-12-06 02:15:00
9:35 PM,41.0,33.8,76,30.24,10.0,NNE,4.6,-,N/A,,Clear,20,2012-12-06 02:35:00
9:55 PM,41.0,33.8,76,30.24,10.0,Calm,Calm,-,N/A,,Clear,0,2012-12-06 02:55:00
10:15 PM,42.8,33.8,70,30.23,10.0,NNE,4.6,-,N/A,,Clear,20,2012-12-06 03:15:00
10:35 PM,41.0,33.8,76,30.23,10.0,Calm,Calm,-,N/A,,Clear,0,2012-12-06 03:35:00
10:55 PM,41.0,33.8,76,30.23,10.0,Calm,Calm,-,N/A,,Clear,0,2012-12-06 03:55:00
11:15 PM,41.0,33.8,76,30.22,10.0,Calm,Calm,-,N/A,,Clear,0,2012-12-06 04:15:00
11:35 PM,41.0,33.8,76,30.22,10.0,NE,3.5,-,N/A,,Clear,40,2012-12-06 04:35:00
11:55 PM,41.0,33.8,76,30.22,10.0,NE,4.6,-,N/A,,Clear,50,2012-12-06 04:55:00